• In Sweden
  • List of Countries
  • For 7 days
  • Water Temperature
  • Satellite Maps
  • Weather Map
  • Weather Widgets
  • user-avatar
    Login

    Hourly Weather Vorylevo

    Today, 26 May, Saturday

    Time Temperature Precipitation Wind Pressure Humidity
    00:00 +9°C° 0 mm 1 mps 759 mmHg 67%
    01:00 +8°C° 0 mm 1 mps 760 mmHg 68%
    02:00 +8°C° 0 mm 1 mps 760 mmHg 68%
    03:00 +9°C° 0 mm 1 mps 760 mmHg 68%
    04:00 +10°C° 0 mm 1 mps 761 mmHg 67%
    05:00 +11°C° 0 mm 1 mps 761 mmHg 67%
    06:00 +13°C° 0 mm 2 mps 761 mmHg 61%
    07:00 +15°C° 0 mm 2 mps 761 mmHg 56%
    08:00 +16°C° 0 mm 2 mps 761 mmHg 51%
    09:00 +18°C° 0 mm 2 mps 761 mmHg 48%
    10:00 +19°C° 0 mm 3 mps 761 mmHg 45%
    11:00 +20°C° 0 mm 3 mps 761 mmHg 43%
    12:00 +21°C° 0 mm 3 mps 760 mmHg 42%
    13:00 +21°C° 0 mm 3 mps 760 mmHg 42%
    14:00 +22°C° 0 mm 3 mps 760 mmHg 41%
    15:00 +22°C° 0 mm 3 mps 759 mmHg 44%
    16:00 +21°C° 0 mm 3 mps 759 mmHg 47%
    17:00 +21°C° 0 mm 3 mps 758 mmHg 50%
    18:00 +19°C° 0 mm 3 mps 758 mmHg 57%
    19:00 +17°C° 0 mm 3 mps 758 mmHg 63%
    20:00 +14°C° 0 mm 3 mps 758 mmHg 69%
    21:00 +14°C° 0 mm 3 mps 758 mmHg 69%
    22:00 +13°C° 0 mm 3 mps 758 mmHg 69%
    23:00 +12°C° 0 mm 3 mps 758 mmHg 69%

    Tomorrow, 27 May, Sunday

    Time Temperature Precipitation Wind Pressure Humidity
    00:00 +12°C° 0 mm 3 mps 758 mmHg 70%
    01:00 +12°C° 0 mm 3 mps 757 mmHg 70%
    02:00 +12°C° 0 mm 3 mps 757 mmHg 71%
    03:00 +12°C° 0 mm 3 mps 757 mmHg 72%
    04:00 +12°C° 0 mm 4 mps 757 mmHg 74%
    05:00 +12°C° 0 mm 4 mps 756 mmHg 75%
    06:00 +14°C° 0 mm 4 mps 756 mmHg 71%
    07:00 +16°C° 0 mm 5 mps 756 mmHg 67%
    08:00 +19°C° 0 mm 5 mps 755 mmHg 63%
    09:00 +20°C° 0 mm 5 mps 755 mmHg 59%
    10:00 +22°C° 0 mm 5 mps 754 mmHg 55%
    11:00 +23°C° 0 mm 6 mps 754 mmHg 50%
    12:00 +23°C° 0.1 mm 5 mps 754 mmHg 53%
    13:00 +22°C° 0.1 mm 5 mps 753 mmHg 56%
    14:00 +22°C° 0.1 mm 4 mps 753 mmHg 59%
    15:00 +21°C° 0.3 mm 4 mps 753 mmHg 59%
    16:00 +21°C° 0.3 mm 4 mps 753 mmHg 59%
    17:00 +21°C° 0.3 mm 4 mps 753 mmHg 59%
    18:00 +19°C° 0 mm 4 mps 754 mmHg 58%
    19:00 +17°C° 0 mm 3 mps 754 mmHg 57%
    20:00 +13°C° 0 mm 3 mps 754 mmHg 56%
    21:00 +12°C° 0 mm 3 mps 755 mmHg 53%
    22:00 +11°C° 0 mm 3 mps 756 mmHg 51%
    23:00 +9°C° 0 mm 2 mps 756 mmHg 48%

    Day after tomorrow, 28 May, Monday

    Time Temperature Precipitation Wind Pressure Humidity
    00:00 +8°C° 0 mm 2 mps 757 mmHg 51%
    01:00 +7°C° 0 mm 2 mps 757 mmHg 54%
    02:00 +6°C° 0 mm 2 mps 758 mmHg 56%
    03:00 +7°C° 0 mm 2 mps 758 mmHg 58%
    04:00 +7°C° 0 mm 2 mps 758 mmHg 59%
    05:00 +8°C° 0 mm 2 mps 759 mmHg 60%
    06:00 +10°C° 0 mm 2 mps 759 mmHg 54%
    07:00 +13°C° 0 mm 2 mps 759 mmHg 47%
    08:00 +14°C° 0 mm 2 mps 759 mmHg 41%
    09:00 +15°C° 0 mm 2 mps 759 mmHg 39%
    10:00 +16°C° 0 mm 3 mps 759 mmHg 37%
    11:00 +17°C° 0 mm 3 mps 759 mmHg 34%
    12:00 +18°C° 0 mm 3 mps 759 mmHg 34%
    13:00 +18°C° 0 mm 3 mps 758 mmHg 34%
    14:00 +19°C° 0 mm 3 mps 758 mmHg 33%
    15:00 +19°C° 0 mm 2 mps 758 mmHg 36%
    16:00 +19°C° 0 mm 2 mps 758 mmHg 38%
    17:00 +19°C° 0 mm 2 mps 757 mmHg 41%
    18:00 +17°C° 0 mm 2 mps 757 mmHg 47%
    19:00 +15°C° 0 mm 2 mps 757 mmHg 53%
    20:00 +13°C° 0 mm 2 mps 757 mmHg 59%
    21:00 +13°C° 0 mm 2 mps 757 mmHg 60%
    22:00 +12°C° 0 mm 2 mps 757 mmHg 60%
    23:00 +10°C° 0 mm 2 mps 757 mmHg 61%

    29 May, Tuesday

    Time Temperature Precipitation Wind Pressure Humidity
    00:00 +10°C° 0 mm 2 mps 757 mmHg 62%
    01:00 +9°C° 0 mm 2 mps 757 mmHg 64%
    02:00 +9°C° 0 mm 2 mps 757 mmHg 66%
    03:00 +9°C° 0 mm 2 mps 757 mmHg 66%
    04:00 +10°C° 0 mm 2 mps 757 mmHg 66%
    05:00 +12°C° 0 mm 2 mps 757 mmHg 66%
    06:00 +13°C° 0 mm 3 mps 757 mmHg 61%
    07:00 +16°C° 0 mm 3 mps 756 mmHg 55%
    08:00 +18°C° 0 mm 3 mps 756 mmHg 50%
    09:00 +19°C° 0 mm 3 mps 756 mmHg 46%
    10:00 +21°C° 0 mm 3 mps 755 mmHg 42%
    11:00 +22°C° 0 mm 3 mps 755 mmHg 38%
    12:00 +24°C° 0 mm 3 mps 755 mmHg 38%
    13:00 +24°C° 0 mm 3 mps 754 mmHg 38%
    14:00 +25°C° 0 mm 3 mps 753 mmHg 37%
    15:00 +25°C° 0 mm 3 mps 753 mmHg 41%
    16:00 +24°C° 0 mm 3 mps 752 mmHg 44%
    17:00 +24°C° 0 mm 2 mps 752 mmHg 48%
    18:00 +21°C° 0 mm 2 mps 752 mmHg 53%
    19:00 +19°C° 0 mm 2 mps 751 mmHg 59%
    20:00 +17°C° 0 mm 2 mps 751 mmHg 65%
    21:00 +16°C° 0 mm 2 mps 751 mmHg 67%
    22:00 +15°C° 0 mm 2 mps 751 mmHg 68%
    23:00 +14°C° 0 mm 2 mps 750 mmHg 69%

    30 May, Wednesday

    Time Temperature Precipitation Wind Pressure Humidity
    00:00 +13°C° 0 mm 3 mps 750 mmHg 71%
    01:00 +12°C° 0 mm 3 mps 750 mmHg 73%
    02:00 +12°C° 0 mm 3 mps 750 mmHg 74%
    03:00 +12°C° 0 mm 3 mps 749 mmHg 73%
    04:00 +13°C° 0 mm 3 mps 749 mmHg 72%
    05:00 +13°C° 0 mm 3 mps 748 mmHg 70%
    06:00 +15°C° 0 mm 4 mps 748 mmHg 65%
    07:00 +17°C° 0 mm 5 mps 747 mmHg 59%
    08:00 +20°C° 0 mm 5 mps 747 mmHg 53%
    09:00 +22°C° 0 mm 6 mps 746 mmHg 50%
    10:00 +23°C° 0 mm 6 mps 745 mmHg 47%
    11:00 +26°C° 0 mm 7 mps 745 mmHg 44%
    12:00 +26°C° 0 mm 7 mps 744 mmHg 47%
    13:00 +24°C° 0 mm 6 mps 744 mmHg 50%
    14:00 +23°C° 0 mm 6 mps 743 mmHg 53%
    15:00 +22°C° 0.2 mm 6 mps 744 mmHg 53%
    16:00 +21°C° 0.2 mm 6 mps 744 mmHg 53%
    17:00 +20°C° 0.2 mm 6 mps 744 mmHg 54%
    18:00 +17°C° 0 mm 5 mps 745 mmHg 53%
    19:00 +15°C° 0 mm 5 mps 745 mmHg 51%
    20:00 +12°C° 0 mm 4 mps 746 mmHg 50%
    21:00 +11°C° 0 mm 4 mps 746 mmHg 51%
    22:00 +10°C° 0 mm 4 mps 747 mmHg 52%
    23:00 +8°C° 0 mm 4 mps 747 mmHg 52%

    31 May, Thursday

    Time Temperature Precipitation Wind Pressure Humidity
    00:00 +7°C° 0 mm 4 mps 747 mmHg 56%
    01:00 +8°C° 0 mm 3 mps 748 mmHg 60%
    02:00 +7°C° 0 mm 3 mps 748 mmHg 63%
    03:00 +7°C° 0 mm 4 mps 748 mmHg 65%
    04:00 +7°C° 0 mm 4 mps 748 mmHg 66%
    05:00 +7°C° 0 mm 5 mps 748 mmHg 68%
    06:00 +8°C° 0 mm 5 mps 749 mmHg 63%
    07:00 +9°C° 0 mm 5 mps 749 mmHg 58%
    08:00 +12°C° 0 mm 5 mps 749 mmHg 53%
    09:00 +11°C° 0 mm 6 mps 749 mmHg 51%
    10:00 +13°C° 0 mm 6 mps 749 mmHg 49%
    11:00 +14°C° 0 mm 6 mps 749 mmHg 47%
    12:00 +14°C° 0 mm 6 mps 750 mmHg 47%
    13:00 +14°C° 0 mm 5 mps 750 mmHg 47%
    14:00 +15°C° 0 mm 5 mps 750 mmHg 47%
    15:00 +14°C° 0 mm 5 mps 750 mmHg 48%
    16:00 +14°C° 0 mm 5 mps 750 mmHg 49%
    17:00 +14°C° 0 mm 4 mps 750 mmHg 50%
    18:00 +13°C° 0 mm 4 mps 750 mmHg 54%
    19:00 +11°C° 0 mm 3 mps 750 mmHg 59%
    20:00 +10°C° 0 mm 2 mps 751 mmHg 63%
    21:00 +9°C° 0 mm 3 mps 751 mmHg 62%
    22:00 +8°C° 0 mm 3 mps 751 mmHg 61%
    23:00 +7°C° 0 mm 3 mps 751 mmHg 60%
    Show more